Madrid, Spain

2:53 AM CEST on October 01, 2016 (GMT +0200)
Barajas

Weather History for LEMD - June, 2014

Change the Weather History Date:

Monday, June 23, 2014

  Actual Average Record
Temperature  
Mean Temperature 73 °F -  
Max Temperature 88 °F 87 °F 96 °F (2006)
Min Temperature 58 °F 59 °F 51 °F (1997)
Cooling Degree Days 8    
Growing Degree Days 23 (Base 50)    
Moisture  
Dew Point 45 °F    
Average Humidity 34    
Maximum Humidity 63    
Minimum Humidity 10    
Precipitation  
Precipitation 0.00 in - - ()
Sea Level Pressure  
Sea Level Pressure 30.01 in    
Wind  
Wind Speed 6 mph ()    
Max Wind Speed 21 mph    
Max Gust Speed 33 mph    
Visibility 12.5 miles    
Events      
Averages and records for this station are not official NWS values.
T = Trace of Precipitation, MM = Missing Value Source: Averaged Metar Reports

Daily Weather History Graph

Daily Weather History Graph

Search for Another Location

Airport or City:

Trip Planner

Search our weather history database for the weather conditions in past years. The results will help you decide how hot, cold, wet, or windy it might be!

Date:

Astronomy

Jun. 23, 2014 Rise Set
Actual Time 6:44 AM CEST 9:48 PM CEST
Civil Twilight 6:11 AM CEST 10:21 PM CEST
Nautical Twilight 5:28 AM CEST 11:03 PM CEST
Astronomical Twilight 4:39 AM CEST 11:53 PM CEST
Moon 4:01 AM CEST (6/23) 6:14 PM CEST (6/23)
Length of Visible Light 16h 10m
Length of Day
15h 03m
Waning Crescent, 15% of the Moon is Illuminated
Jun 23
Waning Crescent
Jun 27
New
Jul 5
First Quarter
Jul 12
Full
Jul 19
Last Quarter

Hourly Weather History & Observations

Time (CEST) Temp. Dew Point Humidity Pressure Visibility Wind Dir Wind Speed Gust Speed Precip Events Conditions
12:00 AM 75 °F 45 °F 23% 29.96 in 19 mi West 5.8 mph - -   Scattered Clouds
12:00 AM 75.2 °F 46.4 °F 36% 30.06 in - West 5.8 mph - N/A   Clear
12:30 AM 75.2 °F 44.6 °F 34% 30.06 in - WSW 4.6 mph - N/A   Clear
1:00 AM 72 °F 45 °F 26% 29.99 in 19 mi SSE 3.5 mph - -   Scattered Clouds
1:00 AM 71.6 °F 44.6 °F 38% 30.06 in - Variable 2.3 mph - N/A   Clear
1:30 AM 73.4 °F 46.4 °F 38% 30.06 in - SW 4.6 mph - N/A   Clear
2:00 AM 71 °F 46 °F 30% 29.99 in 19 mi SW 6.9 mph - -   Scattered Clouds
2:00 AM 73.4 °F 46.4 °F 38% 30.06 in - SW 6.9 mph - N/A   Clear
2:30 AM 66.2 °F 46.4 °F 49% 30.06 in - Variable 1.2 mph - N/A   Clear
3:00 AM 67 °F 46 °F 36% 30.00 in 19 mi SE 3.5 mph - -   Scattered Clouds
3:00 AM 66.2 °F 46.4 °F 49% 30.06 in - SSE 2.3 mph - N/A   Clear
3:30 AM 64.4 °F 46.4 °F 52% 30.04 in - SE 2.3 mph - N/A   Clear
4:00 AM 63 °F 47 °F 45% 30.01 in 19 mi North 3.5 mph - -   Scattered Clouds
4:00 AM 62.6 °F 46.4 °F 55% 30.06 in - North 4.6 mph - N/A   Clear
4:30 AM 60.8 °F 46.4 °F 59% 30.06 in - Calm Calm - N/A   Clear
5:00 AM 61 °F 47 °F 49% 30.03 in 19 mi Calm Calm - -  
5:00 AM 60.8 °F 46.4 °F 59% 30.06 in - Calm Calm - N/A   Clear
5:30 AM 60.8 °F 46.4 °F 59% 30.06 in - Calm Calm - N/A   Clear
6:00 AM 59 °F 47 °F 55% 30.04 in 19 mi ENE 2.3 mph - -  
6:00 AM 59.0 °F 46.4 °F 63% 30.06 in - East 1.2 mph - N/A   Clear
6:30 AM 59.0 °F 46.4 °F 63% 30.06 in - Variable 2.3 mph - N/A   Clear
7:00 AM 60 °F 47 °F 52% 30.04 in 16 mi SE 4.6 mph - -   Clear
7:00 AM 59.0 °F 46.4 °F 63% 30.06 in - SE 3.5 mph - N/A   Clear
7:30 AM 60.8 °F 46.4 °F 59% 30.06 in - SE 2.3 mph - N/A   Clear
8:00 AM 63 °F 48 °F 48% 30.04 in 16 mi NNE 3.5 mph - -  
8:00 AM 62.6 °F 46.4 °F 55% 30.09 in - NNE 3.5 mph - N/A   Clear
8:30 AM 66.2 °F 48.2 °F 52% 30.09 in - Variable 2.3 mph - N/A   Clear
9:00 AM 69 °F 49 °F 38% 30.04 in 16 mi SE 3.5 mph - -   Scattered Clouds
9:00 AM 66.2 °F 50.0 °F 56% 30.09 in 6.2 mi ESE 3.5 mph - N/A   Partly Cloudy
9:30 AM 68.0 °F 50.0 °F 52% 30.09 in 6.2 mi Variable 2.3 mph - N/A   Partly Cloudy
10:00 AM 72 °F 48 °F 32% 30.03 in 13 mi SSE 3.5 mph - -   Scattered Clouds
10:30 AM 71.6 °F 48.2 °F 43% 30.09 in 6.2 mi NNE 1.2 mph - N/A   Partly Cloudy
11:00 AM 74 °F 47 °F 27% 30.01 in 18 mi SSW 2.3 mph - -  
11:00 AM 73.4 °F 48.2 °F 41% 30.09 in - South 2.3 mph - N/A   Clear
11:30 AM 75.2 °F 48.2 °F 38% 30.09 in - South 1.2 mph - N/A   Clear
12:00 PM 78 °F 47 °F 23% 29.98 in 19 mi SE 5.8 mph - -  
12:00 PM 77.0 °F 48.2 °F 36% 30.09 in - SE 5.8 mph - N/A   Clear
12:30 PM 78.8 °F 48.2 °F 34% 30.06 in 6.2 mi SE 5.8 mph - N/A   Partly Cloudy
1:00 PM 82 °F 46 °F 18% 29.96 in 19 mi SSE 6.9 mph - -   Scattered Clouds
1:00 PM 78.8 °F 46.4 °F 32% 30.06 in 6.2 mi SSE 8.1 mph - N/A   Partly Cloudy
1:30 PM 82.4 °F 48.2 °F 30% 30.06 in 6.2 mi SSE 12.7 mph - N/A   Partly Cloudy
2:00 PM 84 °F 45 °F 16% 29.94 in 19 mi SSE 10.4 mph - -   Scattered Clouds
2:00 PM 80.6 °F 44.6 °F 28% 30.06 in 6.2 mi South 9.2 mph - N/A   Partly Cloudy
2:30 PM 82.4 °F 46.4 °F 28% 30.04 in 6.2 mi South 8.1 mph - N/A   Partly Cloudy
3:00 PM 85 °F 43 °F 14% 29.91 in 19 mi South 9.2 mph - -  
3:00 PM 82.4 °F 44.6 °F 26% 30.04 in 6.2 mi South 9.2 mph - N/A   Partly Cloudy
3:30 PM 82.4 °F 44.6 °F 26% 30.04 in 6.2 mi SW 8.1 mph 20.7 mph N/A   Partly Cloudy
4:00 PM 86 °F 43 °F 13% 29.88 in 19 mi South 13.8 mph - -   Partly Cloudy
4:00 PM 84.2 °F 42.8 °F 23% 30.01 in 6.2 mi South 12.7 mph 29.9 mph N/A   Scattered Clouds
4:30 PM 84.2 °F 42.8 °F 23% 30.01 in 6.2 mi South 13.8 mph - N/A   Scattered Clouds
5:00 PM 87 °F 41 °F 12% 29.86 in 16 mi SSE 12.7 mph - -   Partly Cloudy
5:00 PM 86.0 °F 42.8 °F 22% 29.98 in 6.2 mi SSE 12.7 mph - N/A   Scattered Clouds
5:30 PM 87.8 °F 41.0 °F 19% 29.98 in 6.2 mi South 17.3 mph - N/A   Scattered Clouds
6:00 PM 88 °F 39 °F 10% 29.84 in 14 mi South 15.0 mph - -   Partly Cloudy
6:00 PM 86.0 °F 41.0 °F 20% 29.98 in 6.2 mi South 15.0 mph - N/A   Scattered Clouds
6:30 PM 86.0 °F 41.0 °F 20% 29.98 in 6.2 mi SSE 13.8 mph - N/A   Scattered Clouds
7:00 PM 84 °F 40 °F 12% 29.84 in 19 mi South 13.8 mph - -   Partly Cloudy
7:00 PM 84.2 °F 39.2 °F 20% 29.95 in 6.2 mi South 15.0 mph - N/A   Scattered Clouds
7:30 PM 84.2 °F 39.2 °F 20% 29.95 in - SSW 13.8 mph - N/A   Clear
8:00 PM 85 °F 37 °F 10% 29.83 in 19 mi South 11.5 mph - -   Scattered Clouds
8:00 PM 84.2 °F 39.2 °F 20% 29.95 in - South 13.8 mph - N/A   Clear
8:30 PM 84.2 °F 35.6 °F 18% 29.95 in - SSW 13.8 mph - N/A   Clear
9:00 PM 84 °F 37 °F 10% 29.85 in 19 mi SSW 13.8 mph - -   Scattered Clouds
9:00 PM 84.2 °F 37.4 °F 19% 29.98 in - SSW 12.7 mph 28.8 mph N/A   Clear
9:30 PM 82.4 °F 41.0 °F 23% 29.98 in 6.2 mi SW 8.1 mph - N/A   Partly Cloudy
10:00 PM 80 °F 40 °F 15% 29.89 in 19 mi South 13.8 mph - -   Scattered Clouds
10:00 PM 80.6 °F 41.0 °F 24% 30.01 in 6.2 mi South 16.1 mph - N/A   Partly Cloudy
10:30 PM 77.0 °F 42.8 °F 29% 30.04 in 6.2 mi SSE 20.7 mph 33.4 mph N/A   Partly Cloudy
11:00 PM 74 °F 44 °F 23% 29.95 in 19 mi South 9.2 mph - -   Scattered Clouds
11:00 PM 75.2 °F 44.6 °F 34% 30.04 in 6.2 mi SSE 9.2 mph - N/A   Partly Cloudy